Year,Month,Day,Hour,Minute,Value (Times are PST for temperature in C)
2005,09,26,00,00,9.80
2005,09,26,00,01,9.80
2005,09,26,00,02,9.80
2005,09,26,00,03,9.80
2005,09,26,00,04,9.80
2005,09,26,00,05,9.80
2005,09,26,00,06,9.80
2005,09,26,00,07,9.80
2005,09,26,00,08,9.80
2005,09,26,00,09,9.80
2005,09,26,00,10,9.80
2005,09,26,00,11,9.80
2005,09,26,00,12,9.80
2005,09,26,00,13,9.70
2005,09,26,00,14,9.70
2005,09,26,00,15,9.70
2005,09,26,00,16,9.70
2005,09,26,00,17,9.70
2005,09,26,00,18,9.70
2005,09,26,00,19,9.70
2005,09,26,00,20,9.70
2005,09,26,00,21,9.70
2005,09,26,00,22,9.70
2005,09,26,00,23,9.70
2005,09,26,00,24,9.70
2005,09,26,00,25,9.70
2005,09,26,00,26,9.70
2005,09,26,00,27,9.60
2005,09,26,00,28,9.60
2005,09,26,00,29,9.60
2005,09,26,00,30,9.50
2005,09,26,00,31,9.50
2005,09,26,00,32,9.50
2005,09,26,00,33,9.50
2005,09,26,00,34,9.50
2005,09,26,00,35,9.50
2005,09,26,00,36,9.50
2005,09,26,00,37,9.50
2005,09,26,00,38,9.50
2005,09,26,00,39,9.50
2005,09,26,00,40,9.50
2005,09,26,00,41,9.50
2005,09,26,00,42,9.60
2005,09,26,00,43,9.60
2005,09,26,00,44,9.60
2005,09,26,00,45,9.60
2005,09,26,00,46,9.60
2005,09,26,00,47,9.60
2005,09,26,00,48,9.60
2005,09,26,00,49,9.60
2005,09,26,00,50,9.60
2005,09,26,00,51,9.60
2005,09,26,00,52,9.60
2005,09,26,00,53,9.60
2005,09,26,00,54,9.50
2005,09,26,00,55,9.50
2005,09,26,00,56,9.50
2005,09,26,00,57,9.50
2005,09,26,00,58,9.50
2005,09,26,00,59,9.50
2005,09,26,01,00,9.40
2005,09,26,01,01,9.40
2005,09,26,01,02,9.40
2005,09,26,01,03,9.40
2005,09,26,01,04,9.40
2005,09,26,01,05,9.40
2005,09,26,01,06,9.40
2005,09,26,01,07,9.40
2005,09,26,01,08,9.30
2005,09,26,01,09,9.30
2005,09,26,01,10,9.30
2005,09,26,01,11,9.30
2005,09,26,01,12,9.30
2005,09,26,01,13,9.30
2005,09,26,01,14,9.30
2005,09,26,01,15,9.30
2005,09,26,01,16,9.30
2005,09,26,01,17,9.30
2005,09,26,01,18,9.20
2005,09,26,01,19,9.20
2005,09,26,01,20,9.20
2005,09,26,01,21,9.20
2005,09,26,01,22,9.20
2005,09,26,01,23,9.20
2005,09,26,01,24,9.20
2005,09,26,01,25,9.20
2005,09,26,01,26,9.20
2005,09,26,01,27,9.20
2005,09,26,01,28,9.20
2005,09,26,01,29,9.20
2005,09,26,01,30,9.20
2005,09,26,01,31,9.10
2005,09,26,01,32,9.10
2005,09,26,01,33,9.10
2005,09,26,01,34,9.10
2005,09,26,01,35,9.10
2005,09,26,01,36,9.10
2005,09,26,01,37,9.00
2005,09,26,01,38,9.00
2005,09,26,01,39,9.00
2005,09,26,01,40,9.00
2005,09,26,01,41,9.00
2005,09,26,01,42,8.90
2005,09,26,01,43,8.90
2005,09,26,01,44,8.90
2005,09,26,01,45,8.90
2005,09,26,01,46,8.90
2005,09,26,01,47,8.90
2005,09,26,01,48,8.80
2005,09,26,01,49,8.80
2005,09,26,01,50,8.80
2005,09,26,01,51,8.80
2005,09,26,01,52,8.80
2005,09,26,01,53,8.80
2005,09,26,01,54,8.70
2005,09,26,01,55,8.70
2005,09,26,01,56,8.70
2005,09,26,01,57,8.70
2005,09,26,01,58,8.70
2005,09,26,01,59,8.70
2005,09,26,02,00,8.70
2005,09,26,02,01,8.70
2005,09,26,02,02,8.70
2005,09,26,02,03,8.70
2005,09,26,02,04,8.70
2005,09,26,02,05,8.70
2005,09,26,02,06,8.70
2005,09,26,02,07,8.60
2005,09,26,02,08,8.60
2005,09,26,02,09,8.60
2005,09,26,02,10,8.60
2005,09,26,02,11,8.60
2005,09,26,02,12,8.50
2005,09,26,02,13,8.50
2005,09,26,02,14,8.50
2005,09,26,02,15,8.50
2005,09,26,02,16,8.50
2005,09,26,02,17,8.50
2005,09,26,02,18,8.40
2005,09,26,02,19,8.40
2005,09,26,02,20,8.40
2005,09,26,02,21,8.40
2005,09,26,02,22,8.40
2005,09,26,02,23,8.30
2005,09,26,02,24,8.30
2005,09,26,02,25,8.30
2005,09,26,02,26,8.30
2005,09,26,02,27,8.30
2005,09,26,02,28,8.30
2005,09,26,02,29,8.30
2005,09,26,02,30,8.30
2005,09,26,02,31,8.30
2005,09,26,02,32,8.30
2005,09,26,02,33,8.30
2005,09,26,02,34,8.30
2005,09,26,02,35,8.30
2005,09,26,02,36,8.30
2005,09,26,02,37,8.30
2005,09,26,02,38,8.30
2005,09,26,02,39,8.30
2005,09,26,02,40,8.30
2005,09,26,02,41,8.30
2005,09,26,02,42,8.30
2005,09,26,02,43,8.30
2005,09,26,02,44,8.30
2005,09,26,02,45,8.30
2005,09,26,02,46,8.30
2005,09,26,02,47,8.30
2005,09,26,02,48,8.30
2005,09,26,02,49,8.30
2005,09,26,02,50,8.30
2005,09,26,02,51,8.30
2005,09,26,02,52,8.30
2005,09,26,02,53,8.30
2005,09,26,02,54,8.30
2005,09,26,02,55,8.20
2005,09,26,02,56,8.20
2005,09,26,02,57,8.20
2005,09,26,02,58,8.20
2005,09,26,02,59,8.20
2005,09,26,03,00,8.20
2005,09,26,03,01,8.20
2005,09,26,03,02,8.20
2005,09,26,03,03,8.20
2005,09,26,03,04,8.20
2005,09,26,03,05,8.10
2005,09,26,03,06,8.10
2005,09,26,03,07,8.10
2005,09,26,03,08,8.00
2005,09,26,03,09,8.00
2005,09,26,03,10,8.00
2005,09,26,03,11,7.90
2005,09,26,03,12,7.90
2005,09,26,03,13,7.90
2005,09,26,03,14,7.90
2005,09,26,03,15,7.90
2005,09,26,03,16,7.90
2005,09,26,03,17,7.90
2005,09,26,03,18,7.90
2005,09,26,03,19,7.90
2005,09,26,03,20,7.90
2005,09,26,03,21,7.90
2005,09,26,03,22,7.90
2005,09,26,03,23,8.00
2005,09,26,03,24,8.00
2005,09,26,03,25,8.00
2005,09,26,03,26,8.00
2005,09,26,03,27,8.00
2005,09,26,03,28,8.00
2005,09,26,03,29,8.00
2005,09,26,03,30,8.00
2005,09,26,03,31,8.00
2005,09,26,03,32,7.90
2005,09,26,03,33,7.90
2005,09,26,03,34,7.90
2005,09,26,03,35,7.90
2005,09,26,03,36,7.90
2005,09,26,03,37,7.90
2005,09,26,03,38,7.90
2005,09,26,03,39,7.90
2005,09,26,03,40,7.90
2005,09,26,03,41,7.90
2005,09,26,03,42,7.90
2005,09,26,03,43,8.00
2005,09,26,03,44,8.00
2005,09,26,03,45,8.00
2005,09,26,03,46,7.90
2005,09,26,03,47,7.90
2005,09,26,03,48,7.90
2005,09,26,03,49,7.90
2005,09,26,03,50,7.90
2005,09,26,03,51,7.90
2005,09,26,03,52,7.90
2005,09,26,03,53,7.90
2005,09,26,03,54,7.90
2005,09,26,03,55,7.90
2005,09,26,03,56,7.90
2005,09,26,03,57,7.90
2005,09,26,03,58,7.90
2005,09,26,03,59,7.80
2005,09,26,04,00,7.80
2005,09,26,04,01,7.80
2005,09,26,04,02,7.80
2005,09,26,04,03,7.80
2005,09,26,04,04,7.80
2005,09,26,04,05,7.80
2005,09,26,04,06,7.80
2005,09,26,04,07,7.80
2005,09,26,04,08,7.80
2005,09,26,04,09,7.80
2005,09,26,04,10,7.80
2005,09,26,04,11,7.80
2005,09,26,04,12,7.80
2005,09,26,04,13,7.80
2005,09,26,04,14,7.80
2005,09,26,04,15,7.80
2005,09,26,04,16,7.80
2005,09,26,04,17,7.80
2005,09,26,04,18,7.80
2005,09,26,04,19,7.80
2005,09,26,04,20,7.80
2005,09,26,04,21,7.80
2005,09,26,04,22,7.80
2005,09,26,04,23,7.80
2005,09,26,04,24,7.70
2005,09,26,04,25,7.70
2005,09,26,04,26,7.70
2005,09,26,04,27,7.70
2005,09,26,04,28,7.70
2005,09,26,04,29,7.70
2005,09,26,04,30,7.80
2005,09,26,04,31,7.80
2005,09,26,04,32,7.80
2005,09,26,04,33,7.80
2005,09,26,04,34,7.80
2005,09,26,04,35,7.80
2005,09,26,04,36,7.80
2005,09,26,04,37,7.80
2005,09,26,04,38,7.80
2005,09,26,04,39,7.80
2005,09,26,04,40,7.80
2005,09,26,04,41,7.80
2005,09,26,04,42,7.80
2005,09,26,04,43,7.80
2005,09,26,04,44,7.80
2005,09,26,04,45,7.80
2005,09,26,04,46,7.80
2005,09,26,04,47,7.80
2005,09,26,04,48,7.80
2005,09,26,04,49,7.70
2005,09,26,04,50,7.70
2005,09,26,04,51,7.70
2005,09,26,04,52,7.70
2005,09,26,04,53,7.70
2005,09,26,04,54,7.70
2005,09,26,04,55,7.70
2005,09,26,04,56,7.70
2005,09,26,04,57,7.70
2005,09,26,04,58,7.60
2005,09,26,04,59,7.60
2005,09,26,05,00,7.60
2005,09,26,05,01,7.60
2005,09,26,05,02,7.60
2005,09,26,05,03,7.60
2005,09,26,05,04,7.60
2005,09,26,05,05,7.60
2005,09,26,05,06,7.60
2005,09,26,05,07,7.60
2005,09,26,05,08,7.60
2005,09,26,05,09,7.60
2005,09,26,05,10,7.50
2005,09,26,05,11,7.50
2005,09,26,05,12,7.50
2005,09,26,05,13,7.50
2005,09,26,05,14,7.50
2005,09,26,05,15,7.40
2005,09,26,05,16,7.40
2005,09,26,05,17,7.40
2005,09,26,05,18,7.30
2005,09,26,05,19,7.30
2005,09,26,05,20,7.30
2005,09,26,05,21,7.30
2005,09,26,05,22,7.30
2005,09,26,05,23,7.20
2005,09,26,05,24,7.20
2005,09,26,05,25,7.10
2005,09,26,05,26,7.10
2005,09,26,05,27,7.10
2005,09,26,05,28,7.00
2005,09,26,05,29,7.00
2005,09,26,05,30,7.00
2005,09,26,05,31,7.00
2005,09,26,05,32,7.00
2005,09,26,05,33,7.00
2005,09,26,05,34,7.00
2005,09,26,05,35,7.00
2005,09,26,05,36,7.00
2005,09,26,05,37,7.00
2005,09,26,05,38,7.00
2005,09,26,05,39,7.00
2005,09,26,05,40,7.00
2005,09,26,05,41,7.00
2005,09,26,05,42,7.00
2005,09,26,05,43,7.00
2005,09,26,05,44,7.00
2005,09,26,05,45,7.00
2005,09,26,05,46,6.90
2005,09,26,05,47,6.90
2005,09,26,05,48,6.90
2005,09,26,05,49,6.90
2005,09,26,05,50,6.90
2005,09,26,05,51,6.80
2005,09,26,05,52,6.80
2005,09,26,05,53,6.80
2005,09,26,05,54,6.80
2005,09,26,05,55,6.80
2005,09,26,05,56,6.80
2005,09,26,05,57,6.80
2005,09,26,05,58,6.80
2005,09,26,05,59,6.80
2005,09,26,06,00,6.80
2005,09,26,06,01,6.80
2005,09,26,06,02,6.80
2005,09,26,06,03,6.90
2005,09,26,06,04,6.90
2005,09,26,06,05,6.90
2005,09,26,06,06,6.90
2005,09,26,06,07,6.90
2005,09,26,06,08,6.90
2005,09,26,06,09,6.90
2005,09,26,06,10,6.90
2005,09,26,06,11,6.90
2005,09,26,06,12,6.80
2005,09,26,06,13,6.80
2005,09,26,06,14,6.80
2005,09,26,06,15,6.80
2005,09,26,06,16,6.80
2005,09,26,06,17,6.80
2005,09,26,06,18,6.70
2005,09,26,06,19,6.70
2005,09,26,06,20,6.70
2005,09,26,06,21,6.70
2005,09,26,06,22,6.70
2005,09,26,06,23,6.70
2005,09,26,06,24,6.70
2005,09,26,06,25,6.80
2005,09,26,06,26,6.80
2005,09,26,06,27,6.80
2005,09,26,06,28,6.80
2005,09,26,06,29,6.80
2005,09,26,06,30,6.90
2005,09,26,06,31,6.90
2005,09,26,06,32,7.00
2005,09,26,06,33,7.00
2005,09,26,06,34,7.10
2005,09,26,06,35,7.10
2005,09,26,06,36,7.20
2005,09,26,06,37,7.20
2005,09,26,06,38,7.30
2005,09,26,06,39,7.30
2005,09,26,06,40,7.30
2005,09,26,06,41,7.30
2005,09,26,06,42,7.30
2005,09,26,06,43,7.30
2005,09,26,06,44,7.30
2005,09,26,06,45,7.30
2005,09,26,06,46,7.30
2005,09,26,06,47,7.30
2005,09,26,06,48,7.30
2005,09,26,06,49,7.30
2005,09,26,06,50,7.30
2005,09,26,06,51,7.30
2005,09,26,06,52,7.30
2005,09,26,06,53,7.30
2005,09,26,06,54,7.30
2005,09,26,06,55,7.30
2005,09,26,06,56,7.30
2005,09,26,06,57,7.30
2005,09,26,06,58,7.20
2005,09,26,06,59,7.20
2005,09,26,07,00,7.20
2005,09,26,07,01,7.20
2005,09,26,07,02,7.20
2005,09,26,07,03,7.20
2005,09,26,07,04,7.20
2005,09,26,07,05,7.10
2005,09,26,07,06,7.10
2005,09,26,07,07,7.00
2005,09,26,07,08,6.90
2005,09,26,07,09,6.90
2005,09,26,07,10,6.80
2005,09,26,07,11,6.80
2005,09,26,07,12,6.80
2005,09,26,07,13,6.80
2005,09,26,07,14,6.80
2005,09,26,07,15,6.80
2005,09,26,07,16,6.80
2005,09,26,07,17,6.80
2005,09,26,07,18,6.80
2005,09,26,07,19,6.80
2005,09,26,07,20,6.80
2005,09,26,07,21,6.80
2005,09,26,07,22,6.80
2005,09,26,07,23,6.80
2005,09,26,07,24,6.80
2005,09,26,07,25,6.80
2005,09,26,07,26,6.80
2005,09,26,07,27,6.80
2005,09,26,07,28,6.80
2005,09,26,07,29,6.90
2005,09,26,07,30,6.90
2005,09,26,07,31,6.90
2005,09,26,07,32,6.90
2005,09,26,07,33,7.00
2005,09,26,07,34,7.00
2005,09,26,07,35,7.10
2005,09,26,07,36,7.10
2005,09,26,07,37,7.20
2005,09,26,07,38,7.30
2005,09,26,07,39,7.30
2005,09,26,07,40,7.30
2005,09,26,07,41,7.40
2005,09,26,07,42,7.50
2005,09,26,07,43,7.50
2005,09,26,07,44,7.60
2005,09,26,07,45,7.60
2005,09,26,07,46,7.60
2005,09,26,07,47,7.70
2005,09,26,07,48,7.80
2005,09,26,07,49,7.80
2005,09,26,07,50,7.90
2005,09,26,07,51,8.00
2005,09,26,07,52,8.00
2005,09,26,07,53,8.10
2005,09,26,07,54,8.20
2005,09,26,07,55,8.20
2005,09,26,07,56,8.30
2005,09,26,07,57,8.40
2005,09,26,07,58,8.50
2005,09,26,07,59,8.60
2005,09,26,08,00,8.70
2005,09,26,08,01,8.70
2005,09,26,08,02,8.80
2005,09,26,08,03,8.90
2005,09,26,08,04,8.90
2005,09,26,08,05,9.00
2005,09,26,08,06,9.10
2005,09,26,08,07,9.20
2005,09,26,08,08,9.20
2005,09,26,08,09,9.20
2005,09,26,08,10,9.20
2005,09,26,08,11,9.30
2005,09,26,08,12,9.40
2005,09,26,08,13,9.40
2005,09,26,08,14,9.50
2005,09,26,08,15,9.50
2005,09,26,08,16,9.60
2005,09,26,08,17,9.60
2005,09,26,08,18,9.60
2005,09,26,08,19,9.60
2005,09,26,08,20,9.70
2005,09,26,08,21,9.60
2005,09,26,08,22,9.60
2005,09,26,08,23,9.70
2005,09,26,08,24,9.70
2005,09,26,08,25,9.70
2005,09,26,08,26,9.70
2005,09,26,08,27,9.70
2005,09,26,08,28,9.80
2005,09,26,08,29,9.80
2005,09,26,08,30,9.90
2005,09,26,08,31,9.90
2005,09,26,08,32,9.90
2005,09,26,08,33,9.90
2005,09,26,08,34,10.00
2005,09,26,08,35,10.10
2005,09,26,08,36,10.10
2005,09,26,08,37,10.10
2005,09,26,08,38,10.10
2005,09,26,08,39,10.10
2005,09,26,08,40,10.10
2005,09,26,08,41,10.10
2005,09,26,08,42,10.20
2005,09,26,08,43,10.20
2005,09,26,08,44,10.20
2005,09,26,08,45,10.30
2005,09,26,08,46,10.30
2005,09,26,08,47,10.30
2005,09,26,08,48,10.40
2005,09,26,08,49,10.40
2005,09,26,08,50,10.40
2005,09,26,08,51,10.50
2005,09,26,08,52,10.60
2005,09,26,08,53,10.60
2005,09,26,08,54,10.60
2005,09,26,08,55,10.60
2005,09,26,08,56,10.60
2005,09,26,08,57,10.60
2005,09,26,08,58,10.60
2005,09,26,08,59,10.60
2005,09,26,09,00,10.60
2005,09,26,09,01,10.60
2005,09,26,09,02,10.60
2005,09,26,09,03,10.60
2005,09,26,09,04,10.60
2005,09,26,09,05,10.60
2005,09,26,09,06,10.60
2005,09,26,09,07,10.60
2005,09,26,09,08,10.60
2005,09,26,09,09,10.60
2005,09,26,09,10,10.60
2005,09,26,09,11,10.60
2005,09,26,09,12,10.60
2005,09,26,09,13,10.50
2005,09,26,09,14,10.40
2005,09,26,09,15,10.40
2005,09,26,09,16,10.40
2005,09,26,09,17,10.40
2005,09,26,09,18,10.40
2005,09,26,09,19,10.40
2005,09,26,09,20,10.40
2005,09,26,09,21,10.50
2005,09,26,09,22,10.60
2005,09,26,09,23,10.60
2005,09,26,09,24,10.60
2005,09,26,09,25,10.70
2005,09,26,09,26,10.70
2005,09,26,09,27,10.70
2005,09,26,09,28,10.80
2005,09,26,09,29,10.80
2005,09,26,09,30,10.90
2005,09,26,09,31,10.90
2005,09,26,09,32,10.90
2005,09,26,09,33,11.00
2005,09,26,09,34,11.10
2005,09,26,09,35,11.10
2005,09,26,09,36,11.20
2005,09,26,09,37,11.30
2005,09,26,09,38,11.30
2005,09,26,09,39,11.40
2005,09,26,09,40,11.40
2005,09,26,09,41,11.40
2005,09,26,09,42,11.60
2005,09,26,09,43,11.60
2005,09,26,09,44,11.60
2005,09,26,09,45,11.60
2005,09,26,09,46,11.70
2005,09,26,09,47,11.80
2005,09,26,09,48,11.80
2005,09,26,09,49,11.80
2005,09,26,09,50,11.80
2005,09,26,09,51,11.80
2005,09,26,09,52,11.80
2005,09,26,09,53,11.80
2005,09,26,09,54,11.80
2005,09,26,09,55,11.80
2005,09,26,09,56,11.80
2005,09,26,09,57,11.80
2005,09,26,09,58,11.80
2005,09,26,09,59,11.80
2005,09,26,10,00,11.80
2005,09,26,10,01,11.80
2005,09,26,10,02,11.80
2005,09,26,10,03,11.80
2005,09,26,10,04,11.80
2005,09,26,10,05,11.80
2005,09,26,10,06,11.80
2005,09,26,10,07,11.80
2005,09,26,10,08,11.60
2005,09,26,10,09,11.60
2005,09,26,10,10,11.70
2005,09,26,10,11,11.70
2005,09,26,10,12,11.70
2005,09,26,10,13,11.80
2005,09,26,10,14,11.80
2005,09,26,10,15,11.80
2005,09,26,10,16,11.80
2005,09,26,10,17,11.80
2005,09,26,10,18,11.80
2005,09,26,10,19,11.80
2005,09,26,10,20,11.80
2005,09,26,10,21,11.90
2005,09,26,10,22,11.90
2005,09,26,10,23,12.00
2005,09,26,10,24,12.10
2005,09,26,10,25,12.10
2005,09,26,10,26,12.20
2005,09,26,10,27,12.20
2005,09,26,10,28,12.20
2005,09,26,10,29,12.10
2005,09,26,10,30,12.10
2005,09,26,10,31,12.10
2005,09,26,10,32,12.20
2005,09,26,10,33,12.30
2005,09,26,10,34,12.30
2005,09,26,10,35,12.30
2005,09,26,10,36,12.30
2005,09,26,10,37,12.20
2005,09,26,10,38,12.10
2005,09,26,10,39,12.00
2005,09,26,10,40,11.90
2005,09,26,10,41,11.80
2005,09,26,10,42,11.80
2005,09,26,10,43,11.80
2005,09,26,10,44,11.80
2005,09,26,10,45,11.80
2005,09,26,10,46,11.90
2005,09,26,10,47,11.90
2005,09,26,10,48,11.90
2005,09,26,10,49,11.90
2005,09,26,10,50,11.80
2005,09,26,10,51,11.90
2005,09,26,10,52,11.90
2005,09,26,10,53,11.90
2005,09,26,10,54,11.80
2005,09,26,10,55,11.80
2005,09,26,10,56,11.80
2005,09,26,10,57,11.80
2005,09,26,10,58,11.80
2005,09,26,10,59,11.80
2005,09,26,11,00,11.80
2005,09,26,11,01,11.80
2005,09,26,11,02,11.80
2005,09,26,11,03,11.80
2005,09,26,11,04,11.90
2005,09,26,11,05,11.90
2005,09,26,11,06,12.00
2005,09,26,11,07,12.10
2005,09,26,11,08,12.20
2005,09,26,11,09,12.40
2005,09,26,11,10,12.50
2005,09,26,11,11,12.60
2005,09,26,11,12,12.70
2005,09,26,11,13,12.80
2005,09,26,11,14,12.80
2005,09,26,11,15,12.70
2005,09,26,11,16,12.60
2005,09,26,11,17,12.80
2005,09,26,11,18,12.90
2005,09,26,11,19,13.00
2005,09,26,11,20,13.10
2005,09,26,11,21,13.10
2005,09,26,11,22,13.10
2005,09,26,11,23,13.00
2005,09,26,11,24,12.80
2005,09,26,11,25,12.60
2005,09,26,11,26,12.50
2005,09,26,11,27,12.50
2005,09,26,11,28,12.60
2005,09,26,11,29,12.60
2005,09,26,11,30,12.60
2005,09,26,11,31,12.60
2005,09,26,11,32,12.60
2005,09,26,11,33,12.80
2005,09,26,11,34,12.80
2005,09,26,11,35,12.90
2005,09,26,11,36,12.90
2005,09,26,11,37,12.80
2005,09,26,11,38,12.60
2005,09,26,11,39,12.50
2005,09,26,11,40,12.40
2005,09,26,11,41,12.40
2005,09,26,11,42,12.50
2005,09,26,11,43,12.60
2005,09,26,11,44,12.60
2005,09,26,11,45,12.70
2005,09,26,11,46,12.80
2005,09,26,11,47,12.80
2005,09,26,11,48,12.80
2005,09,26,11,49,12.80
2005,09,26,11,50,12.90
2005,09,26,11,51,12.90
2005,09,26,11,52,12.90
2005,09,26,11,53,13.00
2005,09,26,11,54,13.00
2005,09,26,11,55,13.20
2005,09,26,11,56,13.40
2005,09,26,11,57,13.40
2005,09,26,11,58,13.40
2005,09,26,11,59,13.40
2005,09,26,12,00,13.40
2005,09,26,12,01,13.40
2005,09,26,12,02,13.50
2005,09,26,12,03,13.60
2005,09,26,12,04,13.50
2005,09,26,12,05,13.50
2005,09,26,12,06,13.60
2005,09,26,12,07,13.70
2005,09,26,12,08,13.80
2005,09,26,12,09,14.00
2005,09,26,12,10,14.10
2005,09,26,12,11,14.30
2005,09,26,12,12,14.50
2005,09,26,12,13,14.60
2005,09,26,12,14,14.70
2005,09,26,12,15,14.90
2005,09,26,12,16,15.00
2005,09,26,12,17,15.10
2005,09,26,12,18,15.30
2005,09,26,12,19,15.30
2005,09,26,12,20,15.30
2005,09,26,12,21,15.30
2005,09,26,12,22,15.40
2005,09,26,12,23,15.50
2005,09,26,12,24,15.60
2005,09,26,12,25,15.60
2005,09,26,12,26,15.60
2005,09,26,12,27,15.70
2005,09,26,12,28,15.80
2005,09,26,12,29,15.90
2005,09,26,12,30,16.00
2005,09,26,12,31,16.20
2005,09,26,12,32,16.40
2005,09,26,12,33,16.50
2005,09,26,12,34,16.60
2005,09,26,12,35,16.80
2005,09,26,12,36,17.00
2005,09,26,12,37,17.10
2005,09,26,12,38,17.20
2005,09,26,12,39,17.40
2005,09,26,12,40,17.50
2005,09,26,12,41,17.60
2005,09,26,12,42,17.70
2005,09,26,12,43,17.70
2005,09,26,12,44,17.70
2005,09,26,12,45,17.60
2005,09,26,12,46,17.60
2005,09,26,12,47,17.70
2005,09,26,12,48,17.80
2005,09,26,12,49,17.80
2005,09,26,12,50,18.00
2005,09,26,12,51,18.20
2005,09,26,12,52,18.30
2005,09,26,12,53,18.30
2005,09,26,12,54,18.30
2005,09,26,12,55,18.30
2005,09,26,12,56,18.30
2005,09,26,12,57,18.50
2005,09,26,12,58,18.50
2005,09,26,12,59,18.50
2005,09,26,13,00,18.60
2005,09,26,13,01,18.80
2005,09,26,13,02,18.90
2005,09,26,13,03,19.00
2005,09,26,13,04,19.10
2005,09,26,13,05,19.10
2005,09,26,13,06,19.20
2005,09,26,13,07,19.20
2005,09,26,13,08,19.30
2005,09,26,13,09,19.40
2005,09,26,13,10,19.50
2005,09,26,13,11,19.50
2005,09,26,13,12,19.60
2005,09,26,13,13,19.70
2005,09,26,13,14,19.70
2005,09,26,13,15,19.80
2005,09,26,13,16,19.90
2005,09,26,13,17,19.90
2005,09,26,13,18,19.90
2005,09,26,13,19,20.10
2005,09,26,13,20,20.20
2005,09,26,13,21,20.20
2005,09,26,13,22,20.20
2005,09,26,13,23,20.20
2005,09,26,13,24,20.10
2005,09,26,13,25,20.00
2005,09,26,13,26,19.80
2005,09,26,13,27,19.90
2005,09,26,13,28,19.90
2005,09,26,13,29,20.00
2005,09,26,13,30,20.10
2005,09,26,13,31,20.00
2005,09,26,13,32,20.00
2005,09,26,13,33,20.10
2005,09,26,13,34,20.10
2005,09,26,13,35,20.20
2005,09,26,13,36,20.20
2005,09,26,13,37,20.20
2005,09,26,13,38,20.00
2005,09,26,13,39,20.00
2005,09,26,13,40,20.00
2005,09,26,13,41,20.10
2005,09,26,13,42,20.10
2005,09,26,13,43,20.20
2005,09,26,13,44,20.20
2005,09,26,13,45,20.20
2005,09,26,13,46,20.30
2005,09,26,13,47,20.30
2005,09,26,13,48,20.40
2005,09,26,13,49,20.60
2005,09,26,13,50,20.60
2005,09,26,13,51,20.60
2005,09,26,13,52,20.60
2005,09,26,13,53,21.00
2005,09,26,13,54,21.10
2005,09,26,13,55,21.20
2005,09,26,13,56,21.30
2005,09,26,13,57,21.30
2005,09,26,13,58,21.40
2005,09,26,13,59,21.60
2005,09,26,14,00,21.60
2005,09,26,14,01,21.70
2005,09,26,14,02,21.80
2005,09,26,14,03,21.70
2005,09,26,14,04,21.60
2005,09,26,14,05,21.50
2005,09,26,14,06,21.30
2005,09,26,14,07,21.20
2005,09,26,14,08,21.20
2005,09,26,14,09,21.10
2005,09,26,14,10,21.10
2005,09,26,14,11,21.10
2005,09,26,14,12,21.10
2005,09,26,14,13,21.20
2005,09,26,14,14,21.30
2005,09,26,14,15,21.30
2005,09,26,14,16,21.20
2005,09,26,14,17,21.20
2005,09,26,14,18,21.10
2005,09,26,14,19,21.00
2005,09,26,14,20,21.00
2005,09,26,14,21,21.10
2005,09,26,14,22,21.10
2005,09,26,14,23,21.20
2005,09,26,14,24,21.40
2005,09,26,14,25,21.60
2005,09,26,14,26,21.60
2005,09,26,14,27,21.70
2005,09,26,14,28,21.80
2005,09,26,14,29,21.80
2005,09,26,14,30,21.70
2005,09,26,14,31,21.70
2005,09,26,14,32,21.70
2005,09,26,14,33,21.60
2005,09,26,14,34,21.50
2005,09,26,14,35,21.50
2005,09,26,14,36,21.60
2005,09,26,14,37,21.60
2005,09,26,14,38,21.60
2005,09,26,14,39,21.60
2005,09,26,14,40,21.60
2005,09,26,14,41,21.40
2005,09,26,14,42,21.30
2005,09,26,14,43,21.30
2005,09,26,14,44,21.40
2005,09,26,14,45,21.40
2005,09,26,14,46,21.50
2005,09,26,14,47,21.60
2005,09,26,14,48,21.60
2005,09,26,14,49,21.60
2005,09,26,14,50,21.60
2005,09,26,14,51,21.60
2005,09,26,14,52,21.60
2005,09,26,14,53,21.60
2005,09,26,14,54,21.60
2005,09,26,14,55,21.50
2005,09,26,14,56,21.40
2005,09,26,14,57,21.30
2005,09,26,14,58,21.30
2005,09,26,14,59,21.40
2005,09,26,15,00,21.50
2005,09,26,15,01,21.40
2005,09,26,15,02,21.40
2005,09,26,15,03,21.40
2005,09,26,15,04,21.40
2005,09,26,15,05,21.30
2005,09,26,15,06,21.30
2005,09,26,15,07,21.40
2005,09,26,15,08,21.40
2005,09,26,15,09,21.50
2005,09,26,15,10,21.60
2005,09,26,15,11,21.60
2005,09,26,15,12,21.60
2005,09,26,15,13,21.60
2005,09,26,15,14,21.60
2005,09,26,15,15,21.60
2005,09,26,15,16,21.60
2005,09,26,15,17,21.60
2005,09,26,15,18,21.60
2005,09,26,15,19,21.60
2005,09,26,15,20,21.50
2005,09,26,15,21,21.40
2005,09,26,15,22,21.40
2005,09,26,15,23,21.40
2005,09,26,15,24,21.40
2005,09,26,15,25,21.40
2005,09,26,15,26,21.50
2005,09,26,15,27,21.60
2005,09,26,15,28,21.60
2005,09,26,15,29,21.60
2005,09,26,15,30,21.60
2005,09,26,15,31,21.60
2005,09,26,15,32,21.60
2005,09,26,15,33,21.60
2005,09,26,15,34,21.50
2005,09,26,15,35,21.40
2005,09,26,15,36,21.30
2005,09,26,15,37,21.20
2005,09,26,15,38,21.10
2005,09,26,15,39,21.10
2005,09,26,15,40,21.00
2005,09,26,15,41,21.00
2005,09,26,15,42,21.00
2005,09,26,15,43,21.00
2005,09,26,15,44,21.10
2005,09,26,15,45,21.20
2005,09,26,15,46,21.10
2005,09,26,15,47,21.10
2005,09,26,15,48,21.20
2005,09,26,15,49,21.30
2005,09,26,15,50,21.30
2005,09,26,15,51,21.30
2005,09,26,15,52,21.20
2005,09,26,15,53,21.30
2005,09,26,15,54,21.30
2005,09,26,15,55,21.20
2005,09,26,15,56,21.10
2005,09,26,15,57,21.10
2005,09,26,15,58,21.10
2005,09,26,15,59,21.20
2005,09,26,16,00,21.30
2005,09,26,16,01,21.40
2005,09,26,16,02,21.30
2005,09,26,16,03,21.30
2005,09,26,16,04,21.30
2005,09,26,16,05,21.20
2005,09,26,16,06,21.20
2005,09,26,16,07,21.30
2005,09,26,16,08,21.30
2005,09,26,16,09,21.20
2005,09,26,16,10,21.20
2005,09,26,16,11,21.10
2005,09,26,16,12,21.10
2005,09,26,16,13,21.10
2005,09,26,16,14,21.10
2005,09,26,16,15,21.00
2005,09,26,16,16,21.00
2005,09,26,16,17,21.00
2005,09,26,16,18,21.00
2005,09,26,16,19,20.90
2005,09,26,16,20,21.00
2005,09,26,16,21,21.00
2005,09,26,16,22,21.10
2005,09,26,16,23,21.20
2005,09,26,16,24,21.10
2005,09,26,16,25,21.10
2005,09,26,16,26,21.10
2005,09,26,16,27,21.10
2005,09,26,16,28,21.10
2005,09,26,16,29,21.10
2005,09,26,16,30,21.00
2005,09,26,16,31,21.00
2005,09,26,16,32,20.90
2005,09,26,16,33,20.90
2005,09,26,16,34,20.90
2005,09,26,16,35,20.90
2005,09,26,16,36,20.80
2005,09,26,16,37,20.70
2005,09,26,16,38,20.70
2005,09,26,16,39,20.70
2005,09,26,16,40,20.80
2005,09,26,16,41,20.80
2005,09,26,16,42,20.70
2005,09,26,16,43,20.60
2005,09,26,16,44,20.60
2005,09,26,16,45,20.50
2005,09,26,16,46,20.50
2005,09,26,16,47,20.40
2005,09,26,16,48,20.30
2005,09,26,16,49,20.30
2005,09,26,16,50,20.30
2005,09,26,16,51,20.30
2005,09,26,16,52,20.20
2005,09,26,16,53,20.20
2005,09,26,16,54,20.10
2005,09,26,16,55,20.10
2005,09,26,16,56,20.10
2005,09,26,16,57,20.10
2005,09,26,16,58,20.00
2005,09,26,16,59,19.90
2005,09,26,17,00,19.90
2005,09,26,17,01,19.80
2005,09,26,17,02,19.80
2005,09,26,17,03,19.60
2005,09,26,17,04,19.50
2005,09,26,17,05,19.50
2005,09,26,17,06,19.50
2005,09,26,17,07,19.40
2005,09,26,17,08,19.50
2005,09,26,17,09,19.50
2005,09,26,17,10,19.60
2005,09,26,17,11,19.70
2005,09,26,17,12,19.80
2005,09,26,17,13,19.80
2005,09,26,17,14,19.90
2005,09,26,17,15,19.90
2005,09,26,17,16,19.90
2005,09,26,17,17,19.80
2005,09,26,17,18,19.70
2005,09,26,17,19,19.50
2005,09,26,17,20,19.40
2005,09,26,17,21,19.30
2005,09,26,17,22,19.20
2005,09,26,17,23,19.10
2005,09,26,17,24,19.10
2005,09,26,17,25,19.10
2005,09,26,17,26,19.10
2005,09,26,17,27,19.10
2005,09,26,17,28,19.10
2005,09,26,17,29,19.00
2005,09,26,17,30,18.90
2005,09,26,17,31,18.90
2005,09,26,17,32,18.90
2005,09,26,17,33,18.80
2005,09,26,17,34,18.70
2005,09,26,17,35,18.60
2005,09,26,17,36,18.60
2005,09,26,17,37,18.60
2005,09,26,17,38,18.60
2005,09,26,17,39,18.50
2005,09,26,17,40,18.50
2005,09,26,17,41,18.50